Time,TemperatureF,DewpointF,PressureIn,WindDirection,WindDirectionDegrees,WindSpeedMPH,WindSpeedGustMPH,Humidity,HourlyPrecipIn,Conditions,Clouds,dailyrainin,SoftwareType,DateUTC
2013-01-09 00:04:00,50.8,21.2,30.12,NNW,344,1.0,5.0,31,0.00,,,0.00,Wunderground v.1.15,2013-01-09 08:04:00,
2013-01-09 00:09:00,50.7,21.1,30.12,NNW,344,0.0,0.0,31,0.00,,,0.00,Wunderground v.1.15,2013-01-09 08:09:00,
2013-01-09 00:14:00,51.1,20.7,30.12,NNW,344,0.0,3.0,30,0.00,,,0.00,Wunderground v.1.15,2013-01-09 08:14:00,
2013-01-09 00:20:00,51.4,21.0,30.12,NNW,344,0.0,0.0,30,0.00,,,0.00,Wunderground v.1.15,2013-01-09 08:20:00,
2013-01-09 00:26:00,51.3,21.6,30.12,NNW,344,0.0,0.0,31,0.00,,,0.00,Wunderground v.1.15,2013-01-09 08:26:00,
2013-01-09 00:31:00,50.7,21.1,30.11,NNW,344,0.0,0.0,31,0.00,,,0.00,Wunderground v.1.15,2013-01-09 08:31:00,
2013-01-09 00:37:00,50.5,20.9,30.11,NNW,344,0.0,0.0,31,0.00,,,0.00,Wunderground v.1.15,2013-01-09 08:37:00,
2013-01-09 00:43:00,50.7,21.1,30.11,NNW,344,0.0,0.0,31,0.00,,,0.00,Wunderground v.1.15,2013-01-09 08:43:00,
2013-01-09 00:49:00,50.2,20.7,30.11,NNW,344,0.0,0.0,31,0.00,,,0.00,Wunderground v.1.15,2013-01-09 08:49:00,
2013-01-09 00:54:00,50.2,20.7,30.11,NNW,344,0.0,0.0,31,0.00,,,0.00,Wunderground v.1.15,2013-01-09 08:54:00,
2013-01-09 01:00:00,50.4,20.9,30.11,NNW,344,0.0,0.0,31,0.00,,,0.00,Wunderground v.1.15,2013-01-09 09:00:00,
2013-01-09 01:05:00,50.7,21.1,30.11,NNW,344,0.0,5.0,31,0.00,,,0.00,Wunderground v.1.15,2013-01-09 09:05:00,
2013-01-09 01:10:00,51.0,21.4,30.11,NNW,344,0.0,0.0,31,0.00,,,0.00,Wunderground v.1.15,2013-01-09 09:10:00,
2013-01-09 01:16:00,51.0,21.4,30.11,NNW,344,0.0,0.0,31,0.00,,,0.00,Wunderground v.1.15,2013-01-09 09:16:00,
2013-01-09 01:21:00,51.0,20.6,30.11,NNW,344,0.0,0.0,30,0.00,,,0.00,Wunderground v.1.15,2013-01-09 09:21:00,
2013-01-09 01:26:00,50.8,21.2,30.11,NNW,344,0.0,0.0,31,0.00,,,0.00,Wunderground v.1.15,2013-01-09 09:26:00,
2013-01-09 01:31:00,51.0,20.6,30.11,NNW,344,0.0,0.0,30,0.00,,,0.00,Wunderground v.1.15,2013-01-09 09:31:00,
2013-01-09 01:37:00,51.6,20.3,30.11,NNW,344,0.0,0.0,29,0.00,,,0.00,Wunderground v.1.15,2013-01-09 09:37:00,
2013-01-09 01:43:00,51.4,21.0,30.11,NNW,344,0.0,0.0,30,0.00,,,0.00,Wunderground v.1.15,2013-01-09 09:43:00,
2013-01-09 01:48:00,51.1,20.7,30.10,NNW,344,0.0,1.0,30,0.00,,,0.00,Wunderground v.1.15,2013-01-09 09:48:00,
2013-01-09 01:53:00,51.0,20.6,30.10,NNW,344,1.0,1.0,30,0.00,,,0.00,Wunderground v.1.15,2013-01-09 09:53:00,
2013-01-09 01:59:00,51.0,20.6,30.10,NNW,344,1.0,2.0,30,0.00,,,0.00,Wunderground v.1.15,2013-01-09 09:59:00,
2013-01-09 02:05:00,51.0,20.6,30.10,NNW,344,2.0,4.0,30,0.00,,,0.00,Wunderground v.1.15,2013-01-09 10:05:00,
2013-01-09 02:11:00,50.8,20.4,30.10,NNW,344,1.0,2.0,30,0.00,,,0.00,Wunderground v.1.15,2013-01-09 10:11:00,
2013-01-09 02:16:00,50.7,20.4,30.09,NNW,344,0.0,2.0,30,0.00,,,0.00,Wunderground v.1.15,2013-01-09 10:16:00,
2013-01-09 02:22:00,50.8,20.4,30.09,NNW,344,0.0,2.0,30,0.00,,,0.00,Wunderground v.1.15,2013-01-09 10:22:00,
2013-01-09 02:28:00,50.7,20.4,30.09,NNW,344,1.0,3.0,30,0.00,,,0.00,Wunderground v.1.15,2013-01-09 10:28:00,
2013-01-09 02:34:00,50.7,20.4,30.09,NNW,344,1.0,3.0,30,0.00,,,0.00,Wunderground v.1.15,2013-01-09 10:34:00,
2013-01-09 02:39:00,51.0,19.8,30.09,NNW,344,2.0,3.0,29,0.00,,,0.00,Wunderground v.1.15,2013-01-09 10:39:00,
2013-01-09 02:44:00,51.0,19.8,30.09,NNW,344,2.0,2.0,29,0.00,,,0.00,Wunderground v.1.15,2013-01-09 10:44:00,
2013-01-09 02:49:00,51.0,20.6,30.09,NNW,344,0.0,0.0,30,0.00,,,0.00,Wunderground v.1.15,2013-01-09 10:49:00,
2013-01-09 02:55:00,51.0,20.6,30.09,NNW,344,1.0,3.0,30,0.00,,,0.00,Wunderground v.1.15,2013-01-09 10:55:00,
2013-01-09 03:00:00,51.4,19.3,30.08,NNW,344,2.0,2.0,28,0.00,,,0.00,Wunderground v.1.15,2013-01-09 11:00:00,
2013-01-09 03:05:00,52.2,20.0,30.08,NNW,344,1.0,4.0,28,0.00,,,0.00,Wunderground v.1.15,2013-01-09 11:05:00,
2013-01-09 03:10:00,51.6,20.3,30.08,NNW,344,0.0,0.0,29,0.00,,,0.00,Wunderground v.1.15,2013-01-09 11:10:00,
2013-01-09 03:16:00,50.8,20.4,30.08,NNW,344,0.0,0.0,30,0.00,,,0.00,Wunderground v.1.15,2013-01-09 11:16:00,
2013-01-09 03:22:00,50.7,19.6,30.08,NNW,344,1.0,3.0,29,0.00,,,0.00,Wunderground v.1.15,2013-01-09 11:22:00,
2013-01-09 03:28:00,51.7,18.7,30.08,NNW,344,1.0,1.0,27,0.00,,,0.00,Wunderground v.1.15,2013-01-09 11:28:00,
2013-01-09 03:33:00,52.3,19.3,30.08,NNW,344,0.0,1.0,27,0.00,,,0.00,Wunderground v.1.15,2013-01-09 11:33:00,
2013-01-09 03:38:00,52.2,19.2,30.08,NNW,344,0.0,0.0,27,0.00,,,0.00,Wunderground v.1.15,2013-01-09 11:38:00,
2013-01-09 03:43:00,51.4,20.2,30.08,NNW,344,0.0,0.0,29,0.00,,,0.00,Wunderground v.1.15,2013-01-09 11:43:00,
2013-01-09 03:49:00,50.5,18.6,30.08,NNW,344,0.0,0.0,28,0.00,,,0.00,Wunderground v.1.15,2013-01-09 11:49:00,
2013-01-09 03:55:00,50.4,18.5,30.08,NNW,344,0.0,0.0,28,0.00,,,0.00,Wunderground v.1.15,2013-01-09 11:55:00,
2013-01-09 04:01:00,50.8,18.8,30.08,NNW,344,0.0,4.0,28,0.00,,,0.00,Wunderground v.1.15,2013-01-09 12:01:00,
2013-01-09 04:06:00,50.7,18.7,30.08,NNW,344,0.0,4.0,28,0.00,,,0.00,Wunderground v.1.15,2013-01-09 12:06:00,
2013-01-09 04:11:00,50.4,19.3,30.08,NNW,344,0.0,1.0,29,0.00,,,0.00,Wunderground v.1.15,2013-01-09 12:11:00,
2013-01-09 04:17:00,50.5,19.4,30.07,NNW,344,0.0,1.0,29,0.00,,,0.00,Wunderground v.1.15,2013-01-09 12:17:00,
2013-01-09 04:22:00,50.5,18.6,30.07,NNW,344,0.0,0.0,28,0.00,,,0.00,Wunderground v.1.15,2013-01-09 12:22:00,
2013-01-09 04:28:00,50.2,19.1,30.07,NNW,344,0.0,0.0,29,0.00,,,0.00,Wunderground v.1.15,2013-01-09 12:28:00,
2013-01-09 04:34:00,50.8,18.8,30.07,NNW,344,0.0,1.0,28,0.00,,,0.00,Wunderground v.1.15,2013-01-09 12:34:00,
2013-01-09 04:39:00,51.4,19.3,30.07,NNW,344,0.0,1.0,28,0.00,,,0.00,Wunderground v.1.15,2013-01-09 12:39:00,
2013-01-09 04:44:00,51.9,18.9,30.06,NNW,344,0.0,3.0,27,0.00,,,0.00,Wunderground v.1.15,2013-01-09 12:44:00,
2013-01-09 04:50:00,52.2,19.2,30.06,NNW,344,1.0,1.0,27,0.00,,,0.00,Wunderground v.1.15,2013-01-09 12:50:00,
2013-01-09 04:55:00,52.0,19.0,30.06,NNW,344,1.0,3.0,27,0.00,,,0.00,Wunderground v.1.15,2013-01-09 12:55:00,
2013-01-09 05:01:00,52.2,18.3,30.06,NNW,344,1.0,4.0,26,0.00,,,0.00,Wunderground v.1.15,2013-01-09 13:01:00,
2013-01-09 05:06:00,52.6,19.5,30.06,NNW,344,2.0,4.0,27,0.00,,,0.00,Wunderground v.1.15,2013-01-09 13:06:00,
2013-01-09 05:11:00,52.5,18.6,30.06,NNW,344,1.0,3.0,26,0.00,,,0.00,Wunderground v.1.15,2013-01-09 13:11:00,
2013-01-09 05:16:00,52.3,18.4,30.05,NNW,344,1.0,4.0,26,0.00,,,0.00,Wunderground v.1.15,2013-01-09 13:16:00,
2013-01-09 05:22:00,52.5,18.6,30.05,NNW,344,1.0,2.0,26,0.00,,,0.00,Wunderground v.1.15,2013-01-09 13:22:00,
2013-01-09 05:27:00,52.5,18.6,30.05,NNW,344,1.0,2.0,26,0.00,,,0.00,Wunderground v.1.15,2013-01-09 13:27:00,
2013-01-09 05:32:00,52.0,19.0,30.06,NNW,344,0.0,0.0,27,0.00,,,0.00,Wunderground v.1.15,2013-01-09 13:32:00,
2013-01-09 05:38:00,51.6,18.7,30.06,NNW,344,1.0,3.0,27,0.00,,,0.00,Wunderground v.1.15,2013-01-09 13:38:00,
2013-01-09 05:43:00,51.7,18.7,30.06,NNW,344,1.0,2.0,27,0.00,,,0.00,Wunderground v.1.15,2013-01-09 13:43:00,
2013-01-09 05:48:00,51.4,18.5,30.06,NNW,344,1.0,3.0,27,0.00,,,0.00,Wunderground v.1.15,2013-01-09 13:48:00,
2013-01-09 05:54:00,51.7,17.9,30.06,NNW,344,2.0,3.0,26,0.00,,,0.00,Wunderground v.1.15,2013-01-09 13:54:00,
2013-01-09 05:59:00,52.2,18.3,30.06,NNW,344,2.0,3.0,26,0.00,,,0.00,Wunderground v.1.15,2013-01-09 13:59:00,
2013-01-09 06:04:00,52.2,18.3,30.06,NNW,344,1.0,5.0,26,0.00,,,0.00,Wunderground v.1.15,2013-01-09 14:04:00,
2013-01-09 06:09:00,51.4,18.5,30.06,NNW,344,0.0,0.0,27,0.00,,,0.00,Wunderground v.1.15,2013-01-09 14:09:00,
2013-01-09 06:15:00,50.8,18.8,30.05,NNW,344,0.0,0.0,28,0.00,,,0.00,Wunderground v.1.15,2013-01-09 14:15:00,
2013-01-09 06:21:00,50.7,17.9,30.05,NNW,344,0.0,0.0,27,0.00,,,0.00,Wunderground v.1.15,2013-01-09 14:21:00,
2013-01-09 06:27:00,51.1,17.4,30.05,NNW,344,0.0,0.0,26,0.00,,,0.00,Wunderground v.1.15,2013-01-09 14:27:00,
2013-01-09 06:32:00,51.7,17.0,30.05,NNW,344,0.0,2.0,25,0.00,,,0.00,Wunderground v.1.15,2013-01-09 14:32:00,
2013-01-09 06:37:00,51.9,18.0,30.05,NNW,344,1.0,4.0,26,0.00,,,0.00,Wunderground v.1.15,2013-01-09 14:37:00,
2013-01-09 06:42:00,51.7,17.9,30.05,NNW,344,1.0,1.0,26,0.00,,,0.00,Wunderground v.1.15,2013-01-09 14:42:00,
2013-01-09 06:48:00,51.6,17.8,30.06,NNW,344,0.0,1.0,26,0.00,,,0.00,Wunderground v.1.15,2013-01-09 14:48:00,
2013-01-09 06:53:00,51.3,17.5,30.06,NNW,344,0.0,0.0,26,0.00,,,0.00,Wunderground v.1.15,2013-01-09 14:53:00,
2013-01-09 06:59:00,50.5,18.6,30.07,NNW,344,0.0,0.0,28,0.00,,,0.00,Wunderground v.1.15,2013-01-09 14:59:00,
2013-01-09 07:05:00,49.6,20.2,30.07,NNW,344,0.0,5.0,31,0.00,,,0.00,Wunderground v.1.15,2013-01-09 15:05:00,
2013-01-09 07:10:00,48.8,20.2,30.07,NNW,344,1.0,1.0,32,0.00,,,0.00,Wunderground v.1.15,2013-01-09 15:10:00,
2013-01-09 07:15:00,48.0,19.5,30.07,NNW,344,0.0,1.0,32,0.00,,,0.00,Wunderground v.1.15,2013-01-09 15:15:00,
2013-01-09 07:21:00,47.7,20.0,30.07,NNW,344,0.0,0.0,33,0.00,,,0.00,Wunderground v.1.15,2013-01-09 15:21:00,
2013-01-09 07:26:00,47.4,21.1,30.07,NNW,344,0.0,0.0,35,0.00,,,0.00,Wunderground v.1.15,2013-01-09 15:26:00,
2013-01-09 07:31:00,47.4,20.4,30.07,NNW,344,0.0,0.0,34,0.00,,,0.00,Wunderground v.1.15,2013-01-09 15:31:00,
2013-01-09 07:36:00,47.4,21.1,30.07,NNW,344,0.0,0.0,35,0.00,,,0.00,Wunderground v.1.15,2013-01-09 15:36:00,
2013-01-09 07:41:00,47.4,21.7,30.07,NNW,344,0.0,0.0,36,0.00,,,0.00,Wunderground v.1.15,2013-01-09 15:41:00,
2013-01-09 07:47:00,47.4,21.7,30.07,NNW,344,0.0,0.0,36,0.00,,,0.00,Wunderground v.1.15,2013-01-09 15:47:00,
2013-01-09 07:53:00,47.7,22.0,30.07,NNW,344,0.0,0.0,36,0.00,,,0.00,Wunderground v.1.15,2013-01-09 15:53:00,
2013-01-09 07:58:00,48.0,21.6,30.07,NNW,344,0.0,0.0,35,0.00,,,0.00,Wunderground v.1.15,2013-01-09 15:58:00,
2013-01-09 08:03:00,48.3,22.5,30.07,NNW,344,0.0,4.0,36,0.00,,,0.00,Wunderground v.1.15,2013-01-09 16:03:00,
2013-01-09 08:08:00,48.8,23.0,30.07,NNW,344,0.0,4.0,36,0.00,,,0.00,Wunderground v.1.15,2013-01-09 16:08:00,
2013-01-09 08:13:00,49.1,24.6,30.07,NNW,344,0.0,0.0,38,0.00,,,0.00,Wunderground v.1.15,2013-01-09 16:13:00,
2013-01-09 08:19:00,49.2,24.0,30.07,NNW,344,0.0,0.0,37,0.00,,,0.00,Wunderground v.1.15,2013-01-09 16:19:00,
2013-01-09 08:25:00,49.6,22.3,30.07,NNW,344,0.0,0.0,34,0.00,,,0.00,Wunderground v.1.15,2013-01-09 16:25:00,
2013-01-09 08:30:00,49.9,24.0,30.08,NNW,344,0.0,0.0,36,0.00,,,0.00,Wunderground v.1.15,2013-01-09 16:30:00,
2013-01-09 08:35:00,50.1,23.5,30.08,NNW,344,0.0,0.0,35,0.00,,,0.00,Wunderground v.1.15,2013-01-09 16:35:00,
2013-01-09 08:41:00,50.4,23.7,30.08,NNW,344,0.0,0.0,35,0.00,,,0.00,Wunderground v.1.15,2013-01-09 16:41:00,
2013-01-09 08:46:00,50.2,23.6,30.08,NNW,344,0.0,1.0,35,0.00,,,0.00,Wunderground v.1.15,2013-01-09 16:46:00,
2013-01-09 08:52:00,50.1,23.5,30.08,NNW,344,0.0,0.0,35,0.00,,,0.00,Wunderground v.1.15,2013-01-09 16:52:00,
2013-01-09 08:57:00,50.1,22.8,30.08,NNW,344,0.0,0.0,34,0.00,,,0.00,Wunderground v.1.15,2013-01-09 16:57:00,
2013-01-09 09:02:00,50.1,22.8,30.08,NNW,344,0.0,3.0,34,0.00,,,0.00,Wunderground v.1.15,2013-01-09 17:02:00,
2013-01-09 09:07:00,50.2,24.2,30.08,NNW,344,0.0,3.0,36,0.00,,,0.00,Wunderground v.1.15,2013-01-09 17:07:00,
2013-01-09 09:13:00,50.5,24.5,30.08,NNW,344,0.0,0.0,36,0.00,,,0.00,Wunderground v.1.15,2013-01-09 17:13:00,
2013-01-09 09:18:00,51.0,26.3,30.08,NNW,344,0.0,0.0,38,0.00,,,0.00,Wunderground v.1.15,2013-01-09 17:18:00,
2013-01-09 09:24:00,51.7,25.6,30.08,NNW,344,0.0,0.0,36,0.00,,,0.00,Wunderground v.1.15,2013-01-09 17:24:00,
2013-01-09 09:29:00,52.2,26.0,30.08,NNW,344,0.0,0.0,36,0.00,,,0.00,Wunderground v.1.15,2013-01-09 17:29:00,
2013-01-09 09:34:00,52.6,26.4,30.08,NNW,344,0.0,0.0,36,0.00,,,0.00,Wunderground v.1.15,2013-01-09 17:34:00,
2013-01-09 09:40:00,52.3,23.3,30.08,NNW,344,0.0,0.0,32,0.00,,,0.00,Wunderground v.1.15,2013-01-09 17:40:00,
2013-01-09 09:45:00,52.3,25.4,30.08,NNW,344,0.0,0.0,35,0.00,,,0.00,Wunderground v.1.15,2013-01-09 17:45:00,
2013-01-09 09:52:00,53.2,25.5,30.08,NNW,344,0.0,0.0,34,0.00,,,0.00,Wunderground v.1.15,2013-01-09 17:52:00,
2013-01-09 09:58:00,53.9,26.8,30.08,NNW,344,0.0,0.0,35,0.00,,,0.00,Wunderground v.1.15,2013-01-09 17:58:00,
2013-01-09 10:04:00,54.4,25.1,30.07,NNW,344,0.0,1.0,32,0.00,,,0.00,Wunderground v.1.15,2013-01-09 18:04:00,
2013-01-09 10:10:00,54.2,27.1,30.07,NNW,344,0.0,0.0,35,0.00,,,0.00,Wunderground v.1.15,2013-01-09 18:10:00,
2013-01-09 10:15:00,54.1,25.6,30.06,NNW,348,0.0,3.0,33,0.00,,,0.00,Wunderground v.1.15,2013-01-09 18:15:00,
2013-01-09 10:20:00,55.0,25.6,30.06,North,349,0.0,0.0,32,0.00,,,0.00,Wunderground v.1.15,2013-01-09 18:20:00,
2013-01-09 10:26:00,55.4,26.7,30.06,North,350,0.0,0.0,33,0.00,,,0.00,Wunderground v.1.15,2013-01-09 18:26:00,
2013-01-09 10:31:00,54.8,25.5,30.05,North,351,0.0,0.0,32,0.00,,,0.00,Wunderground v.1.15,2013-01-09 18:31:00,
2013-01-09 10:37:00,54.7,26.1,30.05,North,351,0.0,0.0,33,0.00,,,0.00,Wunderground v.1.15,2013-01-09 18:37:00,
2013-01-09 10:41:00,55.7,27.0,30.05,North,355,0.0,0.0,33,0.00,,,0.00,Wunderground v.1.15,2013-01-09 18:41:00,
2013-01-09 10:43:00,55.6,26.2,30.05,North,355,0.0,0.0,32,0.00,,,0.00,Wunderground v.1.15,2013-01-09 18:43:00,
2013-01-09 10:45:00,55.6,26.9,30.04,North,355,0.0,0.0,33,0.00,,,0.00,Wunderground v.1.15,2013-01-09 18:45:00,
2013-01-09 10:46:00,55.6,26.2,30.04,North,360,0.0,0.0,32,0.00,,,0.00,Wunderground v.1.15,2013-01-09 18:46:00,
2013-01-09 10:47:00,55.4,26.0,30.04,North,360,0.0,0.0,32,0.00,,,0.00,Wunderground v.1.15,2013-01-09 18:47:00,
2013-01-09 10:48:00,55.3,25.9,30.04,North,360,0.0,0.0,32,0.00,,,0.00,Wunderground v.1.15,2013-01-09 18:48:00,
2013-01-09 10:50:00,55.3,25.9,30.04,North,360,0.0,0.0,32,0.00,,,0.00,Wunderground v.1.15,2013-01-09 18:50:00,
2013-01-09 10:51:00,55.3,26.7,30.04,North,360,0.0,0.0,33,0.00,,,0.00,Wunderground v.1.15,2013-01-09 18:51:00,
2013-01-09 10:52:00,55.1,26.5,30.04,North,360,0.0,0.0,33,0.00,,,0.00,Wunderground v.1.15,2013-01-09 18:52:00,
2013-01-09 10:58:00,55.6,26.2,30.04,North,5,0.0,0.0,32,0.00,,,0.00,Wunderground v.1.15,2013-01-09 18:58:00,
2013-01-09 11:03:00,54.4,25.1,30.03,North,5,0.0,1.0,32,0.00,,,0.00,Wunderground v.1.15,2013-01-09 19:03:00,
2013-01-09 11:08:00,53.8,27.4,30.03,North,5,0.0,1.0,36,0.00,,,0.00,Wunderground v.1.15,2013-01-09 19:08:00,
2013-01-09 11:14:00,52.9,27.3,30.03,West,279,0.0,3.0,37,0.00,,,0.00,Wunderground v.1.15,2013-01-09 19:14:00,
2013-01-09 11:19:00,52.9,27.3,30.03,West,279,0.0,3.0,37,0.00,,,0.00,Wunderground v.1.15,2013-01-09 19:19:00,
2013-01-09 11:25:00,52.6,28.3,30.03,West,279,0.0,0.0,39,0.00,,,0.00,Wunderground v.1.15,2013-01-09 19:25:00,
2013-01-09 11:30:00,52.9,28.0,30.02,West,281,0.0,1.0,38,0.00,,,0.00,Wunderground v.1.15,2013-01-09 19:30:00,
2013-01-09 11:35:00,52.9,28.6,30.02,West,281,0.0,1.0,39,0.00,,,0.00,Wunderground v.1.15,2013-01-09 19:35:00,
2013-01-09 11:42:00,53.5,27.8,30.02,West,281,0.0,0.0,37,0.00,,,0.00,Wunderground v.1.15,2013-01-09 19:42:00,
2013-01-09 11:48:00,52.8,28.5,30.01,West,281,0.0,0.0,39,0.00,,,0.00,Wunderground v.1.15,2013-01-09 19:48:00,
2013-01-09 11:54:00,53.2,28.2,30.01,SW,223,0.0,1.0,38,0.00,,,0.00,Wunderground v.1.15,2013-01-09 19:54:00,
2013-01-09 11:59:00,52.6,29.5,30.01,NW,321,0.0,1.0,41,0.00,,,0.00,Wunderground v.1.15,2013-01-09 19:59:00,
2013-01-09 12:04:00,52.3,28.1,30.01,West,272,0.0,4.0,39,0.00,,,0.00,Wunderground v.1.15,2013-01-09 20:04:00,
2013-01-09 12:09:00,52.2,28.6,30.01,West,262,0.0,0.0,40,0.00,,,0.00,Wunderground v.1.15,2013-01-09 20:09:00,
2013-01-09 12:15:00,51.7,28.7,30.00,West,272,0.0,2.0,41,0.00,,,0.00,Wunderground v.1.15,2013-01-09 20:15:00,
2013-01-09 12:21:00,51.7,28.1,30.00,West,273,1.0,1.0,40,0.00,,,0.00,Wunderground v.1.15,2013-01-09 20:21:00,
2013-01-09 12:26:00,53.1,28.1,30.00,West,273,0.0,1.0,38,0.00,,,0.00,Wunderground v.1.15,2013-01-09 20:26:00,
2013-01-09 12:31:00,53.2,26.9,30.00,West,273,0.0,0.0,36,0.00,,,0.00,Wunderground v.1.15,2013-01-09 20:31:00,
2013-01-09 12:37:00,52.2,27.3,30.00,West,273,0.0,0.0,38,0.00,,,0.00,Wunderground v.1.15,2013-01-09 20:37:00,
2013-01-09 12:42:00,51.9,29.5,30.00,West,273,0.0,0.0,42,0.00,,,0.00,Wunderground v.1.15,2013-01-09 20:42:00,
2013-01-09 12:47:00,51.9,28.9,29.99,West,273,0.0,0.0,41,0.00,,,0.00,Wunderground v.1.15,2013-01-09 20:47:00,
2013-01-09 12:54:00,51.9,28.3,29.99,West,273,0.0,0.0,40,0.00,,,0.00,Wunderground v.1.15,2013-01-09 20:54:00,
2013-01-09 12:59:00,51.4,28.5,29.99,West,273,0.0,0.0,41,0.00,,,0.00,Wunderground v.1.15,2013-01-09 20:59:00,
2013-01-09 13:04:00,52.0,27.8,29.99,West,263,0.0,4.0,39,0.00,,,0.00,Wunderground v.1.15,2013-01-09 21:04:00,
2013-01-09 13:10:00,51.7,27.5,29.99,West,261,0.0,0.0,39,0.00,,,0.00,Wunderground v.1.15,2013-01-09 21:10:00,
2013-01-09 13:15:00,51.7,28.1,29.99,West,259,0.0,0.0,40,0.00,,,0.00,Wunderground v.1.15,2013-01-09 21:15:00,
2013-01-09 13:22:00,51.3,26.5,29.99,West,261,0.0,0.0,38,0.00,,,0.00,Wunderground v.1.15,2013-01-09 21:22:00,
2013-01-09 13:27:00,51.0,25.6,29.99,West,261,0.0,0.0,37,0.00,,,0.00,Wunderground v.1.15,2013-01-09 21:27:00,
2013-01-09 13:32:00,52.3,24.7,29.98,WSW,258,0.0,0.0,34,0.00,,,0.00,Wunderground v.1.15,2013-01-09 21:32:00,
2013-01-09 13:37:00,53.2,25.5,29.98,WSW,248,0.0,1.0,34,0.00,,,0.00,Wunderground v.1.15,2013-01-09 21:37:00,
2013-01-09 13:42:00,53.2,26.2,29.98,WSW,248,0.0,0.0,35,0.00,,,0.00,Wunderground v.1.15,2013-01-09 21:42:00,
2013-01-09 13:47:00,53.5,26.5,29.98,WSW,248,0.0,0.0,35,0.00,,,0.00,Wunderground v.1.15,2013-01-09 21:47:00,
2013-01-09 13:53:00,52.0,26.5,29.98,WSW,252,0.0,0.0,37,0.00,,,0.00,Wunderground v.1.15,2013-01-09 21:53:00,
2013-01-09 13:59:00,51.4,27.2,29.98,WSW,253,0.0,0.0,39,0.00,,,0.00,Wunderground v.1.15,2013-01-09 21:59:00,
2013-01-09 14:04:00,51.1,25.0,29.98,WSW,254,0.0,6.0,36,0.00,,,0.00,Wunderground v.1.15,2013-01-09 22:04:00,
2013-01-09 14:09:00,51.7,25.6,29.98,WSW,254,0.0,6.0,36,0.00,,,0.00,Wunderground v.1.15,2013-01-09 22:09:00,
2013-01-09 14:15:00,51.3,25.9,29.97,West,263,0.0,0.0,37,0.00,,,0.00,Wunderground v.1.15,2013-01-09 22:15:00,
2013-01-09 14:20:00,50.5,26.4,29.97,West,263,0.0,0.0,39,0.00,,,0.00,Wunderground v.1.15,2013-01-09 22:20:00,
2013-01-09 14:26:00,50.4,27.6,29.97,West,263,0.0,0.0,41,0.00,,,0.00,Wunderground v.1.15,2013-01-09 22:26:00,
2013-01-09 14:31:00,50.1,27.9,29.97,West,263,0.0,0.0,42,0.00,,,0.00,Wunderground v.1.15,2013-01-09 22:31:00,
2013-01-09 14:36:00,50.1,27.9,29.97,West,263,0.0,0.0,42,0.00,,,0.00,Wunderground v.1.15,2013-01-09 22:36:00,
2013-01-09 14:41:00,50.1,26.7,29.97,West,263,0.0,0.0,40,0.00,,,0.00,Wunderground v.1.15,2013-01-09 22:41:00,
2013-01-09 14:46:00,50.4,27.6,29.97,West,263,0.0,0.0,41,0.00,,,0.00,Wunderground v.1.15,2013-01-09 22:46:00,
2013-01-09 14:51:00,50.1,28.4,29.97,West,263,0.0,0.0,43,0.00,,,0.00,Wunderground v.1.15,2013-01-09 22:51:00,
2013-01-09 14:58:00,49.6,27.4,29.97,West,264,0.0,0.0,42,0.00,,,0.00,Wunderground v.1.15,2013-01-09 22:58:00,
2013-01-09 15:03:00,49.5,26.7,29.98,West,263,0.0,5.0,41,0.00,,,0.00,Wunderground v.1.15,2013-01-09 23:03:00,
2013-01-09 15:08:00,49.4,26.1,29.98,West,263,0.0,5.0,40,0.00,,,0.00,Wunderground v.1.15,2013-01-09 23:08:00,
2013-01-09 15:14:00,49.4,26.1,29.98,West,263,0.0,0.0,40,0.00,,,0.00,Wunderground v.1.15,2013-01-09 23:14:00,
2013-01-09 15:20:00,49.4,26.1,29.98,West,263,0.0,0.0,40,0.00,,,0.00,Wunderground v.1.15,2013-01-09 23:20:00,
2013-01-09 15:25:00,49.8,25.8,29.98,West,263,0.0,0.0,39,0.00,,,0.00,Wunderground v.1.15,2013-01-09 23:25:00,
2013-01-09 15:31:00,49.8,25.2,29.98,West,263,0.0,0.0,38,0.00,,,0.00,Wunderground v.1.15,2013-01-09 23:31:00,
2013-01-09 15:36:00,50.2,21.4,29.98,West,263,0.0,0.0,32,0.00,,,0.00,Wunderground v.1.15,2013-01-09 23:36:00,
2013-01-09 15:41:00,50.5,22.4,29.98,West,263,0.0,0.0,33,0.00,,,0.00,Wunderground v.1.15,2013-01-09 23:41:00,
2013-01-09 15:47:00,50.8,25.4,29.97,West,263,0.0,0.0,37,0.00,,,0.00,Wunderground v.1.15,2013-01-09 23:47:00,
2013-01-09 15:52:00,51.0,24.3,29.97,West,263,0.0,0.0,35,0.00,,,0.00,Wunderground v.1.15,2013-01-09 23:52:00,
2013-01-09 15:57:00,51.0,23.6,29.97,West,263,0.0,0.0,34,0.00,,,0.00,Wunderground v.1.15,2013-01-09 23:57:00,
2013-01-09 16:02:00,51.1,23.0,29.96,West,263,0.0,5.0,33,0.00,,,0.00,Wunderground v.1.15,2013-01-10 00:02:00,
2013-01-09 16:08:00,50.7,25.3,29.96,West,263,0.0,5.0,37,0.00,,,0.00,Wunderground v.1.15,2013-01-10 00:08:00,
2013-01-09 16:13:00,49.5,26.1,29.96,West,263,0.0,0.0,40,0.00,,,0.00,Wunderground v.1.15,2013-01-10 00:13:00,
2013-01-09 16:18:00,48.9,27.4,29.96,West,263,0.0,0.0,43,0.00,,,0.00,Wunderground v.1.15,2013-01-10 00:18:00,
2013-01-09 16:23:00,48.3,28.5,29.96,West,263,0.0,0.0,46,0.00,,,0.00,Wunderground v.1.15,2013-01-10 00:23:00,
2013-01-09 16:29:00,47.6,28.9,29.96,West,263,0.0,0.0,48,0.00,,,0.00,Wunderground v.1.15,2013-01-10 00:29:00,
2013-01-09 16:34:00,46.8,29.6,29.96,West,263,0.0,0.0,51,0.00,,,0.00,Wunderground v.1.15,2013-01-10 00:34:00,
2013-01-09 16:39:00,46.2,27.6,29.96,West,263,0.0,0.0,48,0.00,,,0.00,Wunderground v.1.15,2013-01-10 00:39:00,
2013-01-09 16:44:00,46.0,26.4,29.95,West,263,0.0,0.0,46,0.00,,,0.00,Wunderground v.1.15,2013-01-10 00:44:00,
2013-01-09 16:49:00,45.7,23.9,29.95,West,263,0.0,0.0,42,0.00,,,0.00,Wunderground v.1.15,2013-01-10 00:49:00,
2013-01-09 16:55:00,45.4,24.2,29.95,West,263,0.0,0.0,43,0.00,,,0.00,Wunderground v.1.15,2013-01-10 00:55:00,
2013-01-09 17:00:00,44.9,23.2,29.95,West,263,0.0,1.0,42,0.00,,,0.00,Wunderground v.1.15,2013-01-10 01:00:00,
2013-01-09 17:05:00,44.8,21.9,29.95,West,263,0.0,1.0,40,0.00,,,0.00,Wunderground v.1.15,2013-01-10 01:05:00,
2013-01-09 17:10:00,44.6,22.3,29.95,West,263,0.0,0.0,41,0.00,,,0.00,Wunderground v.1.15,2013-01-10 01:10:00,
2013-01-09 17:16:00,44.6,22.3,29.95,West,263,0.0,0.0,41,0.00,,,0.00,Wunderground v.1.15,2013-01-10 01:16:00,
2013-01-09 17:21:00,43.9,23.4,29.95,West,263,0.0,0.0,44,0.00,,,0.00,Wunderground v.1.15,2013-01-10 01:21:00,
2013-01-09 17:27:00,43.1,24.7,29.95,West,263,0.0,0.0,48,0.00,,,0.00,Wunderground v.1.15,2013-01-10 01:27:00,
2013-01-09 17:32:00,42.2,26.7,29.95,West,263,0.0,0.0,54,0.00,,,0.00,Wunderground v.1.15,2013-01-10 01:32:00,
2013-01-09 17:38:00,41.9,26.9,29.95,West,263,0.0,0.0,55,0.00,,,0.00,Wunderground v.1.15,2013-01-10 01:38:00,
2013-01-09 17:44:00,41.8,26.8,29.95,West,263,0.0,0.0,55,0.00,,,0.00,Wunderground v.1.15,2013-01-10 01:44:00,
2013-01-09 17:50:00,41.8,25.9,29.95,West,263,0.0,0.0,53,0.00,,,0.00,Wunderground v.1.15,2013-01-10 01:50:00,
2013-01-09 17:55:00,41.8,25.0,29.95,West,263,0.0,0.0,51,0.00,,,0.00,Wunderground v.1.15,2013-01-10 01:55:00,
2013-01-09 18:01:00,41.8,23.0,29.95,West,263,0.0,1.0,47,0.00,,,0.00,Wunderground v.1.15,2013-01-10 02:01:00,
2013-01-09 18:06:00,42.1,22.3,29.95,West,263,0.0,1.0,45,0.00,,,0.00,Wunderground v.1.15,2013-01-10 02:06:00,
2013-01-09 18:11:00,42.3,21.9,29.95,West,263,0.0,0.0,44,0.00,,,0.00,Wunderground v.1.15,2013-01-10 02:11:00,
2013-01-09 18:17:00,42.3,21.9,29.94,West,263,0.0,0.0,44,0.00,,,0.00,Wunderground v.1.15,2013-01-10 02:17:00,
2013-01-09 18:22:00,42.5,21.5,29.94,West,263,0.0,0.0,43,0.00,,,0.00,Wunderground v.1.15,2013-01-10 02:22:00,
2013-01-09 18:27:00,42.6,22.2,29.94,West,263,0.0,0.0,44,0.00,,,0.00,Wunderground v.1.15,2013-01-10 02:27:00,
2013-01-09 18:32:00,42.9,22.5,29.94,West,263,0.0,0.0,44,0.00,,,0.00,Wunderground v.1.15,2013-01-10 02:32:00,
2013-01-09 18:39:00,43.1,21.0,29.94,West,263,0.0,0.0,41,0.00,,,0.00,Wunderground v.1.15,2013-01-10 02:39:00,
2013-01-09 18:44:00,43.6,21.4,29.93,West,263,0.0,0.0,41,0.00,,,0.00,Wunderground v.1.15,2013-01-10 02:44:00,
2013-01-09 18:49:00,44.1,19.5,29.93,West,263,0.0,0.0,37,0.00,,,0.00,Wunderground v.1.15,2013-01-10 02:49:00,
2013-01-09 18:55:00,44.3,19.6,29.93,West,263,0.0,0.0,37,0.00,,,0.00,Wunderground v.1.15,2013-01-10 02:55:00,
2013-01-09 19:00:00,44.5,19.8,29.93,West,263,0.0,1.0,37,0.00,,,0.00,Wunderground v.1.15,2013-01-10 03:00:00,
2013-01-09 19:06:00,44.3,20.3,29.93,West,263,0.0,1.0,38,0.00,,,0.00,Wunderground v.1.15,2013-01-10 03:06:00,
2013-01-09 19:11:00,44.2,19.5,29.93,West,263,0.0,0.0,37,0.00,,,0.00,Wunderground v.1.15,2013-01-10 03:11:00,
2013-01-09 19:18:00,43.9,18.6,29.93,West,263,0.0,0.0,36,0.00,,,0.00,Wunderground v.1.15,2013-01-10 03:18:00,
2013-01-09 19:23:00,43.9,18.6,29.93,West,263,0.0,0.0,36,0.00,,,0.00,Wunderground v.1.15,2013-01-10 03:23:00,
2013-01-09 19:28:00,43.8,18.5,29.93,West,263,0.0,0.0,36,0.00,,,0.00,Wunderground v.1.15,2013-01-10 03:28:00,
2013-01-09 19:33:00,43.5,18.9,29.93,West,263,0.0,0.0,37,0.00,,,0.00,Wunderground v.1.15,2013-01-10 03:33:00,
2013-01-09 19:38:00,43.2,19.3,29.93,West,263,0.0,0.0,38,0.00,,,0.00,Wunderground v.1.15,2013-01-10 03:38:00,
2013-01-09 19:43:00,43.1,20.4,29.93,West,263,0.0,0.0,40,0.00,,,0.00,Wunderground v.1.15,2013-01-10 03:43:00,
2013-01-09 19:49:00,42.8,20.1,29.93,West,263,0.0,0.0,40,0.00,,,0.00,Wunderground v.1.15,2013-01-10 03:49:00,
2013-01-09 19:54:00,42.8,20.1,29.93,West,263,0.0,0.0,40,0.00,,,0.00,Wunderground v.1.15,2013-01-10 03:54:00,
2013-01-09 20:00:00,42.8,19.5,29.92,West,263,0.0,0.0,39,0.00,,,0.00,Wunderground v.1.15,2013-01-10 04:00:00,
2013-01-09 20:05:00,43.1,19.8,29.92,West,263,0.0,1.0,39,0.00,,,0.00,Wunderground v.1.15,2013-01-10 04:05:00,
2013-01-09 20:10:00,43.2,19.9,29.92,West,265,1.0,1.0,39,0.00,,,0.00,Wunderground v.1.15,2013-01-10 04:10:00,
2013-01-09 20:16:00,43.2,18.6,29.92,West,265,1.0,1.0,37,0.00,,,0.00,Wunderground v.1.15,2013-01-10 04:16:00,
2013-01-09 20:22:00,43.2,19.3,29.92,West,265,0.0,0.0,38,0.00,,,0.00,Wunderground v.1.15,2013-01-10 04:22:00,
2013-01-09 20:28:00,43.1,19.2,29.92,West,265,0.0,0.0,38,0.00,,,0.00,Wunderground v.1.15,2013-01-10 04:28:00,
2013-01-09 20:33:00,43.1,19.8,29.92,West,265,0.0,0.0,39,0.00,,,0.00,Wunderground v.1.15,2013-01-10 04:33:00,
2013-01-09 20:38:00,43.1,19.8,29.92,West,265,0.0,0.0,39,0.00,,,0.00,Wunderground v.1.15,2013-01-10 04:38:00,
2013-01-09 20:43:00,42.8,19.5,29.92,West,265,0.0,0.0,39,0.00,,,0.00,Wunderground v.1.15,2013-01-10 04:43:00,
2013-01-09 20:48:00,42.8,20.1,29.91,West,265,0.0,0.0,40,0.00,,,0.00,Wunderground v.1.15,2013-01-10 04:48:00,
2013-01-09 20:53:00,43.1,19.8,29.91,West,265,0.0,0.0,39,0.00,,,0.00,Wunderground v.1.15,2013-01-10 04:53:00,
2013-01-09 20:59:00,43.2,20.5,29.91,West,265,0.0,0.0,40,0.00,,,0.00,Wunderground v.1.15,2013-01-10 04:59:00,
2013-01-09 21:02:00,42.9,20.8,29.92,West,265,0.0,0.0,41,0.00,,,0.00,Wunderground v.1.15,2013-01-10 05:02:00,
2013-01-09 21:04:00,42.6,21.6,29.92,West,265,0.0,0.0,43,0.00,,,0.00,Wunderground v.1.15,2013-01-10 05:04:00,
2013-01-09 21:05:00,42.6,21.1,29.92,West,265,0.0,0.0,42,0.00,,,0.00,Wunderground v.1.15,2013-01-10 05:05:00,
2013-01-09 21:07:00,42.5,21.0,29.92,West,266,0.0,1.0,42,0.00,,,0.00,Wunderground v.1.15,2013-01-10 05:07:00,
2013-01-09 21:12:00,42.5,20.4,29.92,West,266,1.0,2.0,41,0.00,,,0.00,Wunderground v.1.15,2013-01-10 05:12:00,
2013-01-09 21:17:00,42.6,20.5,29.91,West,266,0.0,2.0,41,0.00,,,0.00,Wunderground v.1.15,2013-01-10 05:17:00,
2013-01-09 21:23:00,42.5,20.4,29.91,West,266,0.0,0.0,41,0.00,,,0.00,Wunderground v.1.15,2013-01-10 05:23:00,
2013-01-09 21:29:00,42.1,21.2,29.91,West,266,0.0,0.0,43,0.00,,,0.00,Wunderground v.1.15,2013-01-10 05:29:00,
2013-01-09 21:35:00,41.6,21.3,29.91,West,266,0.0,0.0,44,0.00,,,0.00,Wunderground v.1.15,2013-01-10 05:35:00,
2013-01-09 21:40:00,41.5,20.6,29.91,West,269,0.0,3.0,43,0.00,,,0.00,Wunderground v.1.15,2013-01-10 05:40:00,
2013-01-09 21:45:00,41.8,20.9,29.90,West,269,1.0,3.0,43,0.00,,,0.00,Wunderground v.1.15,2013-01-10 05:45:00,
2013-01-09 21:50:00,41.5,20.6,29.90,West,269,0.0,0.0,43,0.00,,,0.00,Wunderground v.1.15,2013-01-10 05:50:00,
2013-01-09 21:55:00,41.5,20.6,29.90,West,269,0.0,0.0,43,0.00,,,0.00,Wunderground v.1.15,2013-01-10 05:55:00,
2013-01-09 22:00:00,41.5,21.2,29.90,West,269,0.0,5.0,44,0.00,,,0.00,Wunderground v.1.15,2013-01-10 06:00:00,
2013-01-09 22:06:00,41.6,20.7,29.90,West,269,0.0,5.0,43,0.00,,,0.00,Wunderground v.1.15,2013-01-10 06:06:00,
2013-01-09 22:11:00,41.6,20.7,29.90,West,275,1.0,3.0,43,0.00,,,0.00,Wunderground v.1.15,2013-01-10 06:11:00,
2013-01-09 22:16:00,41.6,20.7,29.91,West,275,1.0,3.0,43,0.00,,,0.00,Wunderground v.1.15,2013-01-10 06:16:00,
2013-01-09 22:22:00,41.6,21.3,29.91,West,275,0.0,0.0,44,0.00,,,0.00,Wunderground v.1.15,2013-01-10 06:22:00,
2013-01-09 22:27:00,41.2,21.4,29.91,West,275,0.0,2.0,45,0.00,,,0.00,Wunderground v.1.15,2013-01-10 06:27:00,
2013-01-09 22:32:00,41.1,21.9,29.91,West,275,0.0,0.0,46,0.00,,,0.00,Wunderground v.1.15,2013-01-10 06:32:00,
2013-01-09 22:37:00,40.9,22.2,29.91,West,275,0.0,0.0,47,0.00,,,0.00,Wunderground v.1.15,2013-01-10 06:37:00,
2013-01-09 22:42:00,40.8,22.6,29.91,West,275,0.0,0.0,48,0.00,,,0.00,Wunderground v.1.15,2013-01-10 06:42:00,
2013-01-09 22:47:00,40.6,22.4,29.90,West,275,0.0,0.0,48,0.00,,,0.00,Wunderground v.1.15,2013-01-10 06:47:00,
2013-01-09 22:54:00,40.8,23.1,29.90,West,275,0.0,0.0,49,0.00,,,0.00,Wunderground v.1.15,2013-01-10 06:54:00,
2013-01-09 22:59:00,40.6,22.9,29.90,West,275,0.0,2.0,49,0.00,,,0.00,Wunderground v.1.15,2013-01-10 06:59:00,
2013-01-09 23:04:00,40.2,23.0,29.90,West,275,0.0,4.0,50,0.00,,,0.00,Wunderground v.1.15,2013-01-10 07:04:00,
2013-01-09 23:09:00,40.3,22.6,29.90,West,275,0.0,0.0,49,0.00,,,0.00,Wunderground v.1.15,2013-01-10 07:09:00,
2013-01-09 23:14:00,40.3,22.6,29.90,West,275,0.0,0.0,49,0.00,,,0.00,Wunderground v.1.15,2013-01-10 07:14:00,
2013-01-09 23:20:00,40.2,23.0,29.90,West,275,0.0,0.0,50,0.00,,,0.00,Wunderground v.1.15,2013-01-10 07:20:00,
2013-01-09 23:25:00,40.2,23.0,29.90,West,275,0.0,0.0,50,0.00,,,0.00,Wunderground v.1.15,2013-01-10 07:25:00,
2013-01-09 23:30:00,40.3,22.6,29.89,West,275,0.0,0.0,49,0.00,,,0.00,Wunderground v.1.15,2013-01-10 07:30:00,
2013-01-09 23:35:00,40.3,23.1,29.89,West,275,0.0,0.0,50,0.00,,,0.00,Wunderground v.1.15,2013-01-10 07:35:00,
2013-01-09 23:41:00,40.3,23.1,29.89,West,275,0.0,0.0,50,0.00,,,0.00,Wunderground v.1.15,2013-01-10 07:41:00,
2013-01-09 23:46:00,40.2,23.5,29.89,West,275,0.0,0.0,51,0.00,,,0.00,Wunderground v.1.15,2013-01-10 07:46:00,
2013-01-09 23:52:00,40.1,22.9,29.89,West,275,0.0,0.0,50,0.00,,,0.00,Wunderground v.1.15,2013-01-10 07:52:00,
2013-01-09 23:58:00,40.1,22.9,29.89,West,275,0.0,0.0,50,0.00,,,0.00,Wunderground v.1.15,2013-01-10 07:58:00,